{"data":{"norad_id":61704,"intl_designator":"2024-195T","name":"STARLINK-32387","alt_names":[],"object_type":"PAYLOAD","status":"ACTIVE","operator":null,"country":"US","launch_date":"2024-10-30","launch_site_code":"AFWTR","launch_vehicle":null,"mission":null,"orbit_class":"UNKNOWN","rcs_meters":null,"size_class":null,"mass_kg":null,"dimensions":null,"purposes":["comms"],"wikipedia_slug":null,"has_3d_model":false,"image_url":null,"decayed_at":null,"tle_current":{"epoch":"2026-05-25T01:39:37.183104Z","epoch_age_seconds":59209,"freshness":"FRESH","line1":"1 61704U 24195T   26145.06918036  .00003739  00000+0  12174-3 0  9999","line2":"2 61704  53.1601 159.2983 0001158  85.2777 274.8358 15.34394551 88894","mean_motion":15.34394551,"eccentricity":0.0001158,"inclination_deg":53.1601,"raan_deg":159.2983,"arg_perigee_deg":85.2777,"mean_anomaly_deg":274.8358,"bstar":0.00012174,"rev_number":8889,"period_min":93.848091357045,"perigee_km":461.92726465609,"apogee_km":463.51160700663,"semimajor_km":6840.8564358314,"source":"CELESTRAK","updated_at":"2026-05-25T13:38:19.442631Z"}}}